Wind_Speed
12 12 12 12 12 12 12 12 12 12 13 13 13 13 13 13 13 12 13 13 13 13 14 14 14 14 13 14 14 14 16 18 19 13 11 22 24 17 15 11 6 11 10 7 5 5 5 5 7 7 6 3 2 1 2 3 1 2 2 2 2 3 4 4 6 4 1 4 7 7 5 6 4 4 2 5 7 5 4 5 4 6 7 6 9 19 25 23
12 12 12 12 13 13 13 13 13 13 13 13 13 13 14 13 13 13 13 13 13 14 13 14 14 14 14 14 13 14 17 20 18 15 23 30 24 19 18 12 9 12 14 15 11 9 7 4 7 7 4 2 1 2 2 2 3 3 3 2 4 4 5 5 5 5 1 4 7 8 6 4 3 2 2 3 1 2 5 4 4 7 9 9 12 21 23 22
14 13 13 13 13 13 13 13 13 13 13 13 13 13 14 14 13 13 13 13 13 14 14 14 14 13 14 13 12 14 16 15 10 14 24 22 19 23 21 15 14 14 16 18 15 12 7 5 9 7 3 1 1 2 2 2 3 3 2 2 5 5 5 6 7 8 7 6 6 7 6 5 1 3 3 5 3 2 2 2 2 4 7 8 9 15 19 19
13 14 14 14 14 13 13 13 13 14 13 13 14 14 14 14 14 14 14 13 13 13 13 14 14 13 14 13 12 13 12 8 5 9 10 9 12 17 19 20 17 14 14 14 11 11 8 6 9 5 3 2 3 0 2 3 3 1 3 4 5 4 4 8 8 9 9 5 3 4 4 5 2 3 4 7 6 2 4 6 5 9 12 11 9 11 15 15
13 14 13 14 14 14 14 14 14 14 14 14 14 14 14 15 14 14 14 14 14 13 14 14 14 13 13 12 11 9 5 3 4 4 1 4 8 10 16 22 22 15 13 11 7 10 8 4 6 4 3 1 2 0 3 5 3 1 3 5 5 3 5 7 5 6 7 5 4 3 1 2 2 4 5 7 6 4 6 7 7 12 16 14 13 12 12 12
13 14 14 14 14 14 14 14 15 14 14 14 14 15 15 15 15 15 15 14 14 13 14 13 14 13 12 10 6 4 2 2 5 2 2 6 6 7 15 23 24 16 13 11 7 10 7 4 4 3 3 1 2 3 4 4 3 2 5 3 5 5 6 6 2 5 7 4 6 4 2 1 3 2 5 7 5 7 6 6 7 11 15 15 15 13 12 12
13 13 14 14 14 14 14 15 15 15 15 15 15 15 15 15 15 15 15 15 14 14 13 13 14 13 11 8 2 2 1 7 14 8 6 8 8 3 16 23 23 17 15 12 8 8 5 5 4 4 4 2 4 5 5 3 2 3 4 5 6 6 8 9 5 7 7 5 8 4 1 1 2 3 3 4 5 6 2 6 9 10 11 13 13 12 13 13
13 13 13 14 14 15 14 15 15 15 15 15 16 15 15 16 15 16 16 15 14 14 13 13 13 11 10 6 1 2 1 13 23 16 13 11 5 5 20 23 19 18 17 15 11 8 6 7 6 4 4 3 4 4 4 2 1 4 5 5 5 6 9 10 8 9 9 6 7 4 2 5 4 2 2 3 3 2 6 9 10 10 10 10 11 12 12 12
14 14 14 14 14 15 15 15 16 16 16 16 16 16 16 16 16 17 16 16 15 13 13 12 12 9 7 4 0 2 6 14 19 15 13 10 4 10 20 21 19 19 16 16 13 9 7 6 6 5 4 5 4 3 4 3 2 5 7 6 5 7 9 8 6 8 9 6 3 2 5 8 5 1 3 4 3 6 8 10 10 11 11 9 10 11 12 13
14 14 14 14 15 15 15 15 16 16 16 16 16 17 17 17 17 17 16 16 14 13 13 11 11 8 6 3 1 3 8 9 8 8 8 8 9 14 18 17 19 20 14 12 13 12 9 7 6 4 3 3 5 4 4 5 3 5 6 5 7 9 9 6 6 8 6 4 5 6 7 8 4 1 3 3 4 8 10 9 9 10 10 10 10 10 11 12
14 14 15 15 14 15 15 15 16 16 17 17 17 17 18 18 17 17 17 16 15 14 12 10 9 7 5 2 3 5 7 5 3 1 3 10 13 16 18 18 18 22 16 9 15 20 11 7 5 2 2 2 3 3 4 5 3 3 2 4 8 8 7 5 6 6 3 3 7 8 6 5 3 1 6 4 7 10 12 10 9 10 9 10 11 10 9 9
15 15 15 15 15 15 15 16 16 17 17 18 18 18 19 18 18 18 17 16 14 13 11 10 7 4 3 2 7 15 8 2 4 6 0 9 13 14 14 17 18 21 20 11 15 22 14 8 5 2 3 2 1 2 4 4 1 2 0 3 8 6 5 6 5 5 5 4 6 8 1 5 3 5 7 8 10 9 12 11 10 10 8 8 10 9 8 8
15 15 15 15 16 16 16 16 16 17 18 18 19 19 19 19 19 18 17 16 14 12 11 8 5 2 1 1 11 20 15 7 6 9 8 7 10 12 11 14 17 19 21 15 13 18 18 13 7 3 3 1 2 3 1 1 1 2 1 2 5 6 5 7 3 3 6 4 6 7 2 6 8 8 5 6 10 9 9 10 9 8 7 7 8 8 8 9
15 15 15 15 16 16 16 17 17 18 18 19 20 20 20 20 20 18 16 15 13 10 9 5 3 2 1 6 13 16 17 16 16 16 12 8 9 11 12 13 16 19 22 17 9 12 20 15 6 2 4 3 3 5 3 4 2 1 1 1 1 1 4 8 3 4 5 3 5 7 3 7 10 8 5 7 10 12 10 9 9 8 7 7 8 8 8 9
15 15 15 15 15 16 16 17 18 18 19 20 20 21 22 21 20 17 16 14 9 6 5 3 4 3 1 10 15 12 12 12 16 20 14 10 9 8 11 14 16 19 20 18 11 8 11 9 4 2 4 2 1 2 3 4 3 2 1 3 3 2 4 8 4 4 5 2 2 5 3 6 9 6 7 10 10 13 12 10 10 9 9 8 7 8 8 7
16 15 15 15 16 16 17 17 18 19 19 21 21 23 23 21 19 17 14 10 5 5 5 2 5 5 1 7 8 6 8 9 12 16 15 13 13 10 11 12 13 14 16 15 13 9 4 2 2 3 2 2 3 3 2 4 4 3 1 3 3 1 2 5 4 3 5 2 1 3 3 4 6 2 5 9 11 12 11 11 11 10 9 9 7 7 7 7
16 15 15 15 16 16 17 18 18 19 20 21 23 25 24 20 17 14 10 6 4 5 6 2 4 5 5 9 7 6 6 9 10 11 14 17 17 14 9 6 7 8 9 8 7 6 2 1 2 1 1 1 3 4 2 2 4 3 2 0 3 1 1 2 4 6 1 2 2 3 4 7 8 1 5 6 10 11 11 12 11 10 8 7 6 7 7 7
16 15 15 16 17 17 17 17 18 19 19 21 23 25 21 12 8 7 4 6 4 3 4 2 1 3 7 11 7 4 3 4 9 9 13 17 18 18 11 5 4 6 4 1 1 2 1 0 1 1 1 2 3 5 4 5 4 2 1 1 2 2 0 1 3 4 3 1 4 3 4 10 12 4 5 6 10 12 13 11 9 8 8 7 7 7 7 7
16 15 15 16 17 17 17 17 18 18 19 21 23 19 8 3 2 3 5 7 6 3 3 4 5 3 5 8 6 5 7 2 7 9 13 16 15 16 12 5 4 7 5 2 1 3 2 1 2 3 3 3 4 5 6 7 6 6 3 3 1 4 3 3 5 6 3 4 5 5 6 10 12 9 2 2 5 10 8 5 6 6 6 7 7 7 7 8
16 16 17 17 17 17 17 17 17 18 18 20 22 14 2 3 2 2 3 4 5 5 3 5 10 5 6 3 2 6 7 3 2 6 14 18 13 10 8 4 4 4 4 4 4 3 4 4 2 5 6 6 6 6 8 6 5 4 1 1 2 3 4 5 4 6 3 3 8 6 8 10 10 9 5 4 1 7 6 4 5 6 7 8 7 7 7 8
16 17 17 17 18 18 17 17 17 18 17 17 17 8 1 1 0 0 1 6 11 13 11 7 12 12 12 8 7 9 5 3 4 1 11 17 13 8 4 3 4 2 3 5 3 1 3 5 5 7 8 7 6 6 7 5 4 2 1 1 4 2 4 7 4 6 2 4 7 3 5 9 9 7 6 3 3 7 9 10 9 9 9 7 6 8 7 6
16 17 17 17 18 18 18 19 18 17 18 17 11 3 4 4 1 5 5 4 9 15 17 14 12 14 16 16 14 6 1 1 4 4 7 13 9 6 4 4 5 4 2 3 3 2 1 4 7 7 7 5 4 5 6 5 5 3 2 1 2 3 4 7 4 5 1 4 6 2 6 7 6 5 6 5 2 6 7 10 11 12 11 7 7 7 6 6
17 18 18 17 17 18 18 19 19 20 20 15 8 7 6 8 10 15 8 2 6 9 13 14 12 12 12 12 12 7 3 3 3 4 8 12 6 5 5 5 6 4 3 4 5 3 2 5 8 6 6 5 3 4 7 5 3 3 3 3 2 4 1 3 5 6 4 1 3 3 4 4 5 5 6 6 6 6 4 4 3 4 6 6 3 2 4 4
17 17 17 17 18 18 18 21 22 18 13 11 13 12 9 15 19 18 6 2 5 5 8 13 10 8 9 6 8 10 3 3 4 3 9 12 5 4 5 4 6 5 3 5 7 5 6 6 4 6 7 7 4 3 6 5 1 2 4 5 3 4 4 5 4 6 6 4 2 6 4 5 4 6 5 6 7 9 9 7 6 6 4 4 5 7 7 6
17 16 17 17 17 17 20 21 14 8 7 10 14 11 13 18 19 10 3 1 4 3 4 9 6 7 10 6 8 8 2 2 4 4 9 13 8 5 4 3 4 5 5 6 7 5 8 5 5 7 5 5 5 4 4 7 3 3 4 8 7 6 6 4 4 5 5 5 4 6 4 4 4 6 5 6 7 10 10 9 9 8 7 5 5 6 7 7
17 16 16 16 16 18 19 11 6 10 12 9 9 11 15 17 15 3 4 2 3 3 2 5 5 7 10 8 7 6 4 3 7 8 10 13 12 7 4 2 2 4 6 5 4 3 4 4 6 7 6 5 5 5 4 7 5 2 5 8 9 7 5 3 2 2 2 1 3 5 5 2 5 6 6 6 6 8 10 11 11 9 7 5 4 5 6 8
17 16 15 15 15 17 13 6 11 15 8 5 9 15 17 15 10 2 2 4 3 3 4 2 3 8 9 9 10 8 2 3 3 6 9 13 11 5 5 4 2 4 4 4 2 3 4 5 5 6 6 5 5 4 5 8 7 3 6 7 8 7 6 5 3 3 2 3 4 4 4 3 3 4 5 6 4 8 12 12 11 10 9 9 7 5 4 5
17 16 15 14 14 14 12 13 16 10 6 9 16 17 16 14 6 2 2 2 2 2 4 2 3 7 5 7 12 7 4 4 5 4 9 17 11 5 5 6 5 6 4 6 3 4 4 6 7 7 5 4 5 5 7 9 6 7 7 6 7 7 7 6 5 3 0 1 3 6 2 4 2 5 5 6 4 8 12 11 11 11 11 10 10 9 8 6
16 16 15 14 15 15 13 13 12 9 9 15 19 18 16 10 2 3 2 1 2 1 2 2 4 5 3 7 11 7 3 3 5 3 5 12 8 4 5 6 7 7 4 6 6 4 2 5 7 7 5 5 7 6 10 11 6 8 5 5 4 3 4 4 5 4 3 4 2 7 1 3 3 5 5 6 4 6 7 7 8 9 10 11 10 10 10 8
16 16 15 15 16 14 12 13 17 14 13 16 20 19 12 4 2 3 1 2 2 1 1 2 2 4 7 9 8 8 4 1 2 3 4 5 4 2 3 3 5 5 1 2 4 4 3 1 4 5 5 7 8 6 9 14 10 3 3 4 4 4 4 4 3 4 4 1 5 7 1 5 1 4 3 3 3 3 4 5 7 8 10 10 10 10 9 8
16 16 15 15 15 13 10 10 12 10 9 16 21 15 4 2 2 2 3 3 1 1 1 2 2 5 10 11 8 8 5 1 2 6 4 3 4 2 2 3 3 4 1 3 3 4 4 1 2 3 6 6 4 3 6 10 7 4 3 4 3 1 4 4 4 4 4 2 6 6 2 7 2 3 2 3 3 5 6 6 7 8 10 9 9 10 9 8
18 18 18 18 16 14 13 10 6 6 11 19 18 6 2 2 1 2 3 3 2 1 2 3 3 5 9 9 7 7 5 2 2 6 5 4 4 4 2 3 4 3 1 4 2 4 4 2 3 4 4 5 5 1 1 3 3 4 4 5 4 1 2 1 3 1 3 3 4 4 2 4 1 1 2 3 4 7 7 6 6 7 9 9 10 10 9 9
20 22 23 22 20 21 23 19 14 15 17 18 9 2 4 2 3 3 3 3 1 3 3 2 3 4 9 7 5 5 5 3 3 4 5 5 5 6 4 3 5 5 2 4 2 1 3 5 4 2 4 3 7 4 2 3 4 6 5 5 5 3 3 1 2 0 2 3 4 3 1 2 1 1 1 2 4 5 6 7 6 7 9 10 10 9 7 8
23 24 26 25 22 24 25 21 19 17 14 10 3 3 2 2 3 1 2 3 1 4 4 3 5 6 8 7 5 6 4 2 3 5 4 4 5 5 4 1 4 5 3 3 3 3 2 4 3 4 3 2 7 7 6 7 6 4 4 6 5 5 4 3 3 3 3 2 2 2 1 2 2 1 1 3 3 3 6 7 6 8 9 8 8 8 8 8
25 25 24 23 21 20 19 17 16 11 6 3 3 2 2 3 3 1 2 3 0 2 5 1 6 6 5 3 3 7 5 1 3 5 4 5 5 5 5 4 4 4 4 3 2 2 4 4 7 5 3 3 6 5 5 8 5 2 2 6 3 5 5 3 3 5 4 2 2 2 1 0 1 3 3 3 3 4 6 7 7 8 8 8 9 9 9 8
24 23 19 18 18 13 10 12 12 9 5 2 3 2 3 3 3 2 2 3 2 3 5 2 3 5 3 1 2 6 4 3 4 4 2 4 4 5 5 5 6 6 5 4 2 1 3 4 7 3 2 4 7 6 5 6 5 1 2 4 3 4 7 5 2 1 3 4 0 0 3 1 1 3 2 4 6 6 7 7 7 8 8 9 8 8 8 8
21 18 12 14 14 6 7 13 16 12 5 3 3 3 3 3 4 3 3 5 5 4 2 1 2 3 3 3 2 5 4 2 3 4 2 2 2 4 5 3 5 9 8 5 2 2 4 3 6 1 3 6 4 5 2 2 5 5 3 5 2 3 5 4 2 2 4 4 2 1 3 3 2 2 3 5 7 7 7 6 7 7 8 8 7 7 7 7
18 12 10 12 9 6 10 17 20 11 3 2 2 3 3 3 4 3 4 6 5 3 1 1 2 2 4 4 2 3 5 3 4 4 3 2 2 4 6 3 4 8 9 7 3 2 3 1 7 3 3 4 2 5 3 3 3 4 5 4 4 3 1 1 2 2 2 3 1 3 1 3 3 2 4 8 8 8 6 6 6 7 7 6 7 8 9 9
11 6 5 5 4 10 17 22 17 5 2 2 3 3 3 3 5 7 7 7 4 1 2 1 2 2 2 4 2 2 5 6 6 4 3 3 3 2 3 2 3 6 8 9 5 2 3 2 5 5 2 1 3 3 3 2 3 4 4 2 2 3 4 2 2 3 4 3 1 2 1 2 3 2 4 8 9 8 7 5 5 6 7 7 7 8 8 8
6 2 2 1 6 16 22 19 7 2 2 3 3 3 3 4 6 8 9 7 3 1 0 1 2 3 1 3 3 2 4 5 5 3 1 3 2 2 2 1 2 4 6 8 6 1 2 3 2 5 4 1 1 1 6 7 3 2 3 1 1 1 2 2 1 2 4 4 3 3 1 4 3 2 2 6 8 8 8 6 4 5 7 8 7 7 7 7
4 1 0 3 12 22 21 9 1 1 2 2 2 2 3 5 7 9 10 8 3 1 2 1 2 3 2 2 2 1 2 4 4 2 1 2 3 1 2 1 1 3 6 6 4 2 1 3 3 3 4 2 2 5 5 8 6 4 3 3 3 3 4 3 0 1 2 4 4 5 2 4 3 1 1 4 7 8 8 7 5 5 7 7 7 7 7 7
2 1 1 9 22 21 11 2 0 1 1 2 2 3 4 5 5 6 8 6 2 1 1 2 2 2 2 1 2 2 3 3 2 3 3 2 3 1 3 4 2 3 6 4 3 2 3 4 3 2 1 2 5 6 1 6 9 7 3 2 3 4 5 5 3 3 1 3 2 4 3 3 3 2 5 5 7 8 8 6 5 5 6 6 6 7 7 8
1 0 2 16 26 13 3 1 0 1 2 2 3 4 4 4 4 4 5 4 2 2 3 2 2 2 2 2 2 3 3 4 4 3 4 3 3 2 6 6 3 3 5 3 1 0 2 4 3 1 2 4 5 5 5 5 8 6 3 3 3 1 3 5 5 3 3 3 2 4 2 2 1 4 6 6 8 10 8 6 5 4 5 5 6 6 7 7
2 2 1 15 22 6 3 3 2 1 3 3 3 4 4 3 4 5 5 3 2 1 2 2 2 2 2 2 3 4 3 4 4 4 4 4 2 4 7 7 3 2 2 3 3 2 1 1 3 3 2 3 4 4 5 5 4 4 2 4 3 1 4 4 2 3 3 3 4 5 2 2 1 5 7 7 9 10 8 6 6 5 5 6 6 6 7 7
2 1 1 8 14 6 1 3 3 1 2 3 3 5 4 3 4 6 5 3 2 1 2 2 2 2 3 3 4 5 6 5 3 2 3 3 1 3 7 8 5 3 3 3 4 4 3 2 3 5 5 3 2 2 2 0 2 3 3 5 5 3 5 4 3 4 2 2 3 4 4 2 3 6 7 7 8 9 8 6 6 5 6 6 6 6 7 7
1 1 1 3 5 3 2 1 2 2 2 1 2 4 3 3 4 3 4 0 2 2 3 2 3 3 5 5 5 6 8 7 4 3 3 3 2 2 5 7 6 5 5 8 7 4 4 3 2 5 5 5 5 3 2 2 4 2 3 5 5 4 2 4 4 3 5 4 2 1 6 8 7 7 7 7 6 8 7 5 4 5 6 6 6 6 6 6
2 0 2 2 2 2 3 2 1 2 2 1 1 3 3 3 3 1 1 1 1 2 4 4 5 4 2 3 5 4 6 6 6 5 3 3 1 2 6 6 7 9 7 6 6 3 5 4 3 4 5 2 2 3 4 5 5 4 3 5 6 5 5 6 4 2 5 6 1 3 8 11 8 6 6 6 5 7 6 5 4 4 5 5 6 6 7 8
2 1 1 1 1 3 3 3 3 4 4 2 1 3 3 2 2 1 2 2 2 3 4 3 7 6 2 3 5 3 4 5 5 4 2 3 3 3 6 6 6 9 7 5 5 3 6 3 3 4 7 8 6 6 7 8 6 6 6 5 6 7 8 7 3 2 1 4 5 8 10 8 6 6 5 5 5 6 6 5 4 4 4 5 6 7 8 8
1 1 2 1 1 3 4 3 3 4 5 4 2 3 3 1 3 1 1 3 4 5 4 4 5 7 6 5 6 3 2 3 3 2 1 2 3 2 3 4 4 7 6 5 4 3 5 3 3 4 7 8 8 6 5 8 7 6 8 8 6 8 10 10 6 4 5 5 8 13 12 6 4 5 5 5 5 4 5 6 5 5 5 6 7 7 7 7
1 1 1 2 2 2 2 1 3 4 3 4 3 4 3 1 2 2 2 3 2 3 4 7 5 6 7 8 8 4 2 5 6 2 2 3 2 2 2 1 1 4 6 4 2 2 4 3 1 3 6 6 7 6 6 7 9 8 9 9 7 6 8 8 6 6 8 7 9 12 10 5 2 4 6 5 4 4 5 6 6 6 6 7 7 7 7 7
3 4 2 1 1 1 2 2 3 4 1 2 3 4 2 1 1 2 3 3 3 3 3 7 7 5 7 9 9 5 4 6 7 4 5 5 2 1 1 2 3 2 4 3 2 3 4 4 1 4 5 1 2 4 5 6 9 9 8 9 9 7 5 5 4 4 3 8 12 10 5 3 4 5 6 5 4 6 6 5 6 5 6 7 7 7 7 7
5 4 2 0 1 2 1 1 2 3 2 3 4 3 1 2 2 5 4 4 4 5 5 8 7 5 6 7 6 2 6 6 5 3 5 4 4 4 3 3 5 4 2 2 2 3 3 5 3 3 4 2 1 1 3 3 4 4 4 6 5 3 5 6 6 6 4 6 9 5 3 5 6 6 5 5 5 6 5 4 5 5 5 6 6 6 7 7
Wind_Direction
319 316 313 315 315 315 315 315 317 316 318 316 315 316 315 317 316 317 317 316 318 317 317 315 315 315 310 312 316 317 319 314 303 294 255 252 256 251 253 264 216 190 203 203 180 166 145 154 180 167 143 141 169 197 182 178 165 119 128 145 190 202 213 197 204 213 159 273 290 318 342 79 39 343 65 37 37 64 66 42 34 25 37 73 100 124 133 142
319 318 315 314 313 313 313 313 314 314 315 314 314 315 314 315 314 315 315 314 316 314 316 315 314 314 310 312 316 319 318 308 299 279 259 258 263 260 251 242 211 203 210 217 216 180 156 180 178 147 124 138 225 196 173 192 174 171 143 144 210 206 219 214 220 256 248 261 295 304 307 38 95 193 75 82 11 23 76 41 26 57 64 73 100 120 130 141
312 314 313 312 313 312 311 311 312 312 312 313 312 312 313 314 313 314 313 312 313 313 315 313 313 313 311 313 320 321 312 306 298 268 266 265 260 254 245 231 215 207 206 215 219 200 182 177 165 129 87 183 259 191 182 236 195 186 142 178 234 209 235 258 249 265 267 268 304 295 305 9 134 162 83 121 115 19 129 151 90 103 119 118 118 122 132 144
308 308 308 309 311 309 310 310 310 311 311 311 311 312 311 311 313 311 310 311 311 313 313 313 313 310 311 319 321 312 305 306 274 254 269 266 256 248 233 221 208 195 195 208 217 203 188 149 151 123 91 215 301 173 187 237 208 177 165 199 235 193 234 260 244 264 279 285 286 262 321 356 323 87 102 129 104 330 245 218 189 159 153 141 140 136 140 147
311 309 308 307 308 307 307 308 309 310 309 310 310 310 310 310 311 309 310 310 311 313 312 313 311 310 316 322 316 299 301 323 268 249 304 294 275 245 218 208 199 187 181 194 199 177 174 131 125 106 102 191 304 99 226 235 180 193 224 208 221 195 242 253 227 263 280 296 294 259 330 324 335 80 133 139 134 226 225 221 199 159 157 153 149 144 143 146
312 309 308 307 308 307 306 306 307 308 308 309 309 309 309 310 309 308 309 308 311 311 310 314 312 314 320 322 316 276 206 261 294 322 342 352 341 237 203 193 191 186 184 193 175 156 161 112 108 137 136 146 201 199 243 250 157 213 269 235 218 211 241 260 223 259 268 280 279 255 207 271 12 13 170 150 179 233 220 187 163 155 159 152 145 146 149 153
311 309 307 307 307 306 307 307 307 307 308 308 307 308 308 308 309 308 308 308 309 309 311 314 313 318 325 330 310 252 146 261 272 267 276 330 355 229 180 178 183 184 190 187 161 157 156 133 151 153 128 149 206 213 243 257 146 179 262 274 251 228 236 257 248 255 264 247 259 269 250 266 337 302 194 162 234 248 198 137 134 145 148 140 140 148 154 159
312 310 308 307 306 306 307 307 307 308 307 307 306 307 307 307 307 306 307 308 307 309 311 312 313 323 330 331 244 285 279 253 260 259 269 289 329 147 162 170 181 186 190 190 178 164 152 152 175 148 135 206 195 198 222 231 190 191 235 263 266 251 244 257 255 256 265 253 261 280 266 242 236 292 296 242 243 161 119 116 123 132 134 139 147 152 157 164
310 309 309 307 307 307 307 306 307 307 307 308 307 306 305 305 305 305 305 305 307 308 310 311 314 323 328 322 130 290 253 252 264 268 273 267 222 155 161 170 184 188 188 197 187 161 171 177 182 167 163 211 196 199 206 190 245 210 217 247 261 266 258 257 258 247 249 244 226 238 261 262 245 134 300 269 161 118 112 118 128 136 142 149 155 157 165 171
309 307 307 306 306 306 306 307 306 307 307 307 306 305 304 304 303 303 302 303 305 306 308 310 313 322 318 302 142 239 257 269 283 271 262 233 187 163 168 179 187 189 186 191 184 176 187 173 173 175 142 199 209 210 197 180 214 203 203 246 246 257 262 246 248 243 235 232 184 190 235 264 278 159 263 296 128 127 115 124 140 144 152 157 162 165 172 179
311 307 306 307 306 304 305 306 306 306 306 305 305 304 303 303 302 301 301 300 301 304 306 306 312 319 302 302 162 224 267 299 338 17 214 199 190 179 183 194 192 191 186 173 193 198 188 159 153 128 145 215 219 215 215 194 204 228 224 294 266 264 275 244 246 247 208 229 197 179 223 271 331 231 220 194 151 142 131 143 160 158 162 162 165 168 175 186
311 308 307 306 306 305 305 305 306 305 305 305 304 303 303 302 301 300 298 297 298 300 302 304 309 302 296 324 226 234 236 125 57 34 205 197 198 197 197 203 204 201 192 178 205 206 189 176 158 126 221 214 271 226 219 217 225 272 39 319 290 326 323 257 243 222 177 210 190 149 270 288 243 232 222 177 159 149 142 156 171 167 164 163 168 169 174 186
308 309 307 306 305 305 306 306 307 306 305 305 304 304 302 300 300 298 297 295 295 296 296 298 295 278 318 276 242 243 240 236 285 299 272 244 227 226 231 224 222 218 205 198 212 206 196 199 183 189 239 159 259 248 155 298 316 282 116 149 289 356 334 275 264 183 171 194 168 144 263 270 243 246 237 178 158 145 147 163 176 172 165 165 172 171 173 184
306 307 307 308 307 306 308 307 308 307 306 306 305 303 300 300 297 294 295 292 291 292 289 285 247 218 175 252 264 264 259 260 264 257 242 241 239 238 252 243 231 226 215 215 226 206 198 203 194 220 258 185 241 279 345 359 14 316 277 162 312 43 279 287 289 150 158 219 160 142 243 260 264 260 196 181 164 151 161 178 179 174 172 172 176 178 176 185
305 306 308 309 309 308 309 309 309 308 309 308 306 304 301 297 293 293 295 288 284 276 267 260 208 185 355 276 277 274 258 256 246 235 224 225 220 225 247 236 225 223 219 223 230 210 190 188 184 216 257 219 83 332 331 349 4 29 2 294 331 157 254 301 304 167 171 254 140 140 226 265 281 279 169 178 172 160 171 184 184 178 179 176 178 184 177 180
305 307 309 310 310 310 310 310 310 310 311 310 308 306 299 295 294 293 286 272 267 248 228 212 195 188 310 281 278 270 240 236 235 227 218 219 218 221 235 220 212 217 220 228 232 235 217 140 183 187 215 200 110 88 32 354 337 4 95 239 288 199 276 314 320 266 193 190 356 178 215 270 285 319 140 173 174 171 178 185 188 183 183 179 177 186 175 169
308 309 309 310 311 311 311 311 312 312 313 312 311 307 302 300 292 280 264 233 231 222 191 172 170 173 256 274 286 284 237 216 216 214 207 211 220 222 211 189 195 200 208 229 235 241 264 85 222 219 70 109 118 103 90 286 288 324 16 239 260 227 275 301 311 321 16 146 243 210 212 253 254 159 100 170 183 179 188 192 191 183 182 177 169 185 183 173
310 310 310 311 311 312 313 313 313 314 315 314 313 310 310 311 280 249 211 180 156 154 188 254 158 152 261 267 259 263 293 218 202 200 197 200 213 215 200 178 152 133 140 232 221 193 159 68 138 126 71 115 128 114 156 218 201 198 333 50 310 315 303 266 276 298 357 294 226 176 225 256 261 250 130 180 202 193 197 194 186 182 179 174 173 187 189 181
312 313 313 313 312 313 313 313 314 314 316 316 318 319 324 24 82 131 145 161 134 122 200 211 183 161 282 257 227 258 316 325 190 191 185 188 200 208 210 203 118 112 112 83 208 193 152 85 84 137 189 188 173 151 169 195 165 160 162 130 281 316 293 267 259 260 290 296 253 197 223 251 265 270 227 240 228 199 197 173 168 181 180 185 186 185 185 188
313 314 314 314 313 314 311 313 314 314 317 319 325 337 31 87 59 121 158 198 212 230 236 184 193 239 307 284 354 338 331 15 157 187 181 183 177 181 209 201 97 95 127 148 194 206 138 145 184 188 197 195 188 173 162 161 143 146 117 86 274 293 292 281 270 283 291 269 267 221 215 250 260 268 289 329 202 171 165 151 178 192 195 201 188 179 186 192
314 314 314 314 314 314 312 313 312 311 315 314 320 336 244 255 11 159 230 233 238 241 256 237 204 237 266 271 334 1 358 357 341 276 184 181 161 150 205 171 128 147 174 165 165 67 118 171 217 213 200 188 180 175 153 128 110 107 130 287 297 272 267 273 267 301 294 184 270 241 186 246 254 272 311 12 127 176 174 172 189 203 207 210 188 183 182 182
314 315 315 315 315 314 313 312 308 308 307 303 302 271 260 276 331 340 327 262 250 231 242 251 228 242 255 263 283 303 17 305 314 316 180 170 153 165 196 128 150 195 184 137 108 51 112 209 233 219 190 161 139 140 130 120 117 107 120 146 290 266 278 291 284 305 306 175 264 233 169 239 271 307 344 21 296 243 205 185 189 197 202 210 204 193 170 168
314 314 315 316 316 315 314 310 306 304 297 291 262 217 271 309 317 320 315 273 272 225 222 238 234 244 251 258 253 215 166 182 227 282 179 161 158 179 165 135 167 172 123 139 141 130 170 242 235 193 147 150 162 135 120 108 109 134 154 147 244 263 287 296 292 316 334 237 244 154 154 271 329 9 18 3 322 316 311 259 229 209 209 221 219 115 96 124
313 315 315 313 316 316 313 310 306 302 297 284 255 245 298 322 318 314 291 224 279 238 211 214 212 234 239 235 198 179 179 183 186 245 178 162 150 156 159 153 157 152 157 162 147 162 222 243 201 133 137 166 188 182 137 137 236 235 199 173 192 242 220 225 281 324 335 339 30 90 59 321 349 33 24 349 351 12 3 348 351 335 316 345 33 62 74 90
314 315 314 313 316 316 312 311 309 313 319 291 267 280 321 323 324 314 234 271 287 261 220 198 191 231 219 175 165 169 128 220 219 213 175 166 158 148 169 158 135 169 188 156 142 190 240 236 121 118 150 164 176 216 177 161 189 282 232 190 188 218 232 256 312 353 15 359 4 76 70 301 327 30 20 349 6 16 11 18 13 342 339 14 62 85 89 98
314 312 313 314 315 320 318 311 321 331 318 282 272 316 324 326 339 311 185 22 298 248 162 164 170 203 194 163 164 141 81 267 230 195 174 170 168 149 151 174 119 179 179 148 151 214 233 192 145 145 158 155 174 223 215 159 144 270 235 181 179 206 218 243 294 50 72 316 334 73 114 238 325 9 2 346 5 21 24 25 20 7 3 29 83 107 115 121
312 309 312 312 316 328 328 308 318 322 304 271 309 324 325 336 349 250 159 28 291 215 140 172 191 176 181 173 156 131 138 239 188 182 176 169 172 134 141 187 152 167 165 126 183 234 178 167 168 157 146 153 179 223 210 156 131 237 238 153 154 187 190 189 152 104 189 237 330 11 110 127 335 324 337 345 359 29 36 31 24 24 24 35 54 58 78 107
310 309 310 311 316 319 308 298 306 298 253 302 325 329 332 338 337 180 103 30 257 154 137 207 196 169 173 157 148 153 221 182 149 198 178 167 169 115 145 195 171 169 164 134 187 247 163 165 180 168 148 166 199 203 178 148 144 243 235 148 155 178 170 168 128 103 303 55 331 314 35 102 290 287 334 5 30 35 38 37 27 27 29 36 45 46 44 45
308 310 308 311 312 306 303 292 273 256 280 312 328 330 327 327 347 95 71 199 177 131 132 147 166 168 144 136 157 190 238 150 170 195 145 161 171 129 168 196 162 162 178 165 195 237 193 186 178 158 153 200 219 197 159 157 187 247 224 130 98 92 114 118 107 112 49 55 235 269 310 120 256 299 348 8 22 22 26 37 35 33 37 37 40 44 46 45
307 306 305 311 309 307 315 287 260 263 289 307 323 326 321 325 57 82 179 233 204 208 114 135 180 156 144 144 165 200 207 104 150 117 105 156 174 155 157 136 118 130 174 228 215 234 268 213 153 151 180 208 218 189 163 178 189 195 169 127 69 37 46 54 66 97 83 12 247 253 202 117 217 296 358 359 340 354 12 36 39 36 39 37 36 37 39 44
305 302 303 304 300 303 312 288 264 260 278 309 325 328 327 57 60 130 205 259 264 236 111 169 192 140 152 159 166 190 190 84 108 129 137 147 150 165 79 81 83 91 104 290 277 280 321 10 172 221 213 198 196 184 179 193 187 104 113 134 125 337 19 31 356 51 102 246 261 248 127 100 154 265 351 338 346 26 30 33 37 40 42 38 36 35 33 34
303 302 300 294 288 281 266 252 260 273 293 319 331 341 87 79 250 210 253 309 352 262 215 172 186 157 159 164 170 176 157 131 147 141 148 138 149 191 163 155 163 113 192 238 267 326 320 243 252 281 237 175 146 189 204 180 169 125 107 99 119 203 24 45 297 42 150 245 255 222 111 79 162 251 356 330 3 31 34 33 35 47 56 53 48 42 36 33
304 303 299 291 284 270 258 253 265 281 301 321 338 50 83 115 222 223 259 306 353 264 260 150 149 151 151 157 177 171 138 156 186 143 148 139 145 197 211 167 151 129 173 207 182 353 313 289 295 301 266 183 141 155 172 156 170 168 152 125 131 127 100 198 266 147 201 251 242 228 104 75 244 265 5 4 20 32 46 46 40 53 64 64 61 56 51 45
305 303 299 294 284 269 261 259 263 273 298 324 20 87 97 201 238 207 226 284 265 261 274 147 130 134 154 165 168 159 141 180 179 132 138 137 134 194 221 197 148 126 124 158 154 157 188 284 260 196 235 188 160 180 180 157 154 177 165 133 141 148 140 192 207 164 196 238 273 297 58 143 190 187 40 49 39 40 62 63 60 62 62 64 63 60 60 56
308 307 304 296 283 267 255 250 251 252 278 336 81 119 201 223 261 187 214 285 337 279 300 137 132 137 162 170 152 165 158 170 167 133 146 165 160 186 194 195 191 144 120 159 199 160 158 234 249 232 233 177 176 195 160 131 132 213 140 105 137 178 144 134 181 172 173 158 0 351 62 23 156 122 82 92 89 68 73 72 67 60 53 54 53 49 50 48
314 314 309 290 277 266 239 227 217 202 201 117 113 200 225 231 251 215 258 301 290 281 307 320 127 129 153 141 176 189 161 113 153 145 163 175 170 188 187 195 191 166 147 161 202 154 133 251 275 286 275 222 191 185 163 154 165 157 115 147 193 168 125 116 195 203 112 129 212 299 123 83 119 126 115 124 110 95 91 74 63 57 49 51 49 44 43 40
316 314 303 279 272 252 197 190 177 170 165 127 157 220 236 242 247 240 278 303 288 273 289 166 128 116 151 160 195 195 155 111 160 163 187 186 190 199 195 211 184 177 179 164 201 212 142 260 284 228 241 257 197 145 109 137 142 120 163 190 155 86 94 108 148 11 53 134 243 319 136 164 178 158 157 141 120 114 108 78 64 57 51 53 49 42 36 32
311 303 289 277 259 197 174 168 161 154 120 132 208 252 241 241 269 288 300 306 295 293 49 117 143 100 138 156 203 188 152 160 188 166 163 200 241 201 178 195 185 186 188 163 180 251 127 277 288 250 225 273 44 88 57 3 66 124 167 164 110 117 173 93 136 137 105 156 253 355 59 184 177 170 168 152 132 121 104 72 63 58 50 47 40 33 25 23
301 288 299 298 202 169 162 156 152 131 73 158 213 252 248 260 286 297 307 309 296 350 25 355 130 77 94 140 157 172 158 176 188 165 144 174 224 235 174 180 187 187 182 160 166 235 120 120 283 277 257 299 32 73 170 268 359 66 98 88 84 138 160 157 150 150 148 171 188 50 6 242 209 215 179 151 135 124 112 89 72 59 49 41 34 29 21 18
285 270 349 1 170 161 152 147 139 78 121 183 207 239 284 310 296 295 309 310 288 146 324 300 95 78 67 133 132 159 166 166 167 157 122 133 138 280 243 167 159 166 163 164 170 198 96 125 239 288 325 40 98 227 192 184 173 113 100 121 218 95 120 152 123 114 135 151 160 133 238 262 246 249 187 150 134 126 124 112 88 63 54 45 35 31 21 13
290 264 310 180 162 151 142 135 104 140 173 244 233 252 306 319 300 298 311 309 276 200 177 154 98 99 101 92 81 65 132 134 138 126 68 90 108 185 236 144 133 146 135 150 168 161 150 143 182 280 354 49 250 279 216 174 153 146 149 165 171 138 121 130 197 286 110 116 158 156 178 266 264 206 116 119 114 111 111 110 98 68 58 49 36 31 23 14
276 185 183 163 157 150 138 100 32 158 211 252 239 272 295 298 292 297 313 316 304 313 55 75 73 82 60 56 85 64 83 99 88 98 97 82 100 140 301 336 2 121 116 131 193 181 141 113 136 243 323 238 264 308 11 125 103 96 104 95 118 129 125 132 184 245 87 90 128 116 108 275 273 110 94 85 90 89 85 93 96 71 55 48 35 30 25 17
256 351 141 160 162 155 82 80 53 309 250 258 283 280 264 267 287 299 311 323 347 5 23 27 29 70 40 10 69 58 61 72 47 73 111 83 50 343 319 337 4 73 89 118 203 119 99 100 114 225 316 307 290 328 16 63 79 80 44 34 76 128 136 141 168 178 131 140 131 79 76 260 267 98 97 89 84 79 68 60 60 55 48 39 32 26 20 15
296 303 134 167 175 178 32 149 184 261 241 289 307 275 261 249 254 267 285 306 328 3 51 19 5 65 45 16 64 51 45 75 47 35 82 87 26 331 343 2 34 77 87 158 171 142 134 122 107 112 61 349 329 345 357 9 46 71 19 354 358 58 104 120 123 84 105 176 145 117 164 230 134 104 98 91 88 83 70 49 37 34 33 30 30 24 15 12
315 299 67 173 188 201 2 176 155 156 243 297 296 274 276 257 240 235 242 296 330 7 88 19 359 59 40 27 58 35 32 75 81 20 50 66 18 333 351 5 32 77 85 95 109 114 117 109 114 131 147 170 186 227 247 260 51 43 13 3 4 38 104 131 123 92 135 189 115 123 172 166 130 121 107 99 98 92 80 57 35 26 25 22 23 22 15 10
314 168 107 138 178 199 248 214 124 146 226 244 270 276 254 246 269 229 197 301 352 31 58 12 357 51 37 37 62 35 25 50 73 64 60 49 22 330 344 3 26 44 60 59 54 82 107 76 88 127 143 180 188 207 233 142 95 62 359 359 3 359 43 108 116 143 169 147 57 204 164 144 149 148 121 106 100 95 86 66 42 29 19 14 17 21 16 9
285 271 149 135 152 203 257 290 137 186 219 176 240 283 260 256 289 311 83 43 357 38 55 19 13 46 43 53 81 46 11 29 43 49 47 27 27 325 348 16 21 8 23 41 22 53 102 50 9 80 80 76 121 82 42 59 83 88 38 357 360 12 39 82 99 173 151 126 134 224 155 142 152 144 118 113 106 97 92 76 54 37 19 12 17 20 17 10
247 277 233 191 162 189 221 246 207 212 253 269 270 293 291 314 21 9 329 9 10 30 71 28 7 27 62 99 105 70 4 28 32 26 24 19 24 348 353 13 13 6 23 36 10 66 106 51 344 68 63 42 43 52 66 80 79 67 57 25 13 37 61 78 75 290 162 142 172 164 142 133 130 116 108 109 104 105 106 95 74 50 32 25 25 25 20 9
232 242 263 306 75 189 200 210 191 201 234 233 237 279 263 349 35 333 307 39 15 4 65 81 14 20 46 77 103 86 27 83 65 14 45 44 32 43 24 4 350 8 36 45 19 69 105 59 0 79 73 41 21 16 55 89 90 55 42 33 29 56 72 75 69 58 69 94 130 130 120 98 85 104 106 98 94 104 105 91 73 51 34 29 28 25 20 10
265 325 316 18 351 233 202 207 177 180 221 214 220 264 243 156 42 2 8 61 74 355 42 95 83 52 59 70 86 92 164 153 129 105 139 106 50 78 118 196 295 2 23 39 9 19 88 102 322 69 71 27 10 31 54 80 93 71 38 24 22 43 62 63 63 67 66 78 101 110 109 95 82 106 103 96 92 82 70 66 64 49 31 32 28 19 16 13
282 300 319 13 317 270 202 213 158 144 206 224 211 243 248 200 157 96 27 15 114 113 105 125 115 68 54 59 72 98 182 151 122 135 160 140 104 112 142 161 150 71 20 29 2 7 72 115 118 66 76 23 4 70 63 64 80 71 38 16 11 21 52 61 52 47 90 125 119 113 121 141 145 126 106 91 80 75 66 59 63 51 33 32 26 15 13 13
310 312 331 130 262 300 227 189 113 136 199 213 207 223 206 213 197 111 74 357 31 79 124 140 123 75 55 57 67 145 198 171 147 172 169 131 92 86 78 81 106 115 121 96 37 18 98 133 138 98 100 148 216 49 25 29 66 61 10 349 347 26 79 70 42 28 49 130 133 133 146 135 133 134 120 98 80 73 64 55 55 51 42 35 25 17 14 12
Height
805 804 803 802 802 801 800 799 798 797 796 795 795 794 793 792 791 790 789 788 787 785 784 783 781 780 779 778 777 776 775 773 770 770 765 755 753 758 758 759 761 762 763 763 764 764 765 766 767 768 770 771 772 772 772 772 772 776 783 791 794 793 789 780 775 771 770 767 760 756 753 753 756 753 750 751 755 758 760 761 761 759 756 756 757 756 758 763
804 804 803 802 801 800 799 798 797 797 796 795 794 793 792 791 790 789 788 787 786 785 784 782 781 780 779 778 777 776 774 771 770 766 755 750 754 755 756 758 760 761 761 762 763 763 765 766 767 768 769 772 773 772 772 771 771 776 783 789 790 786 780 771 768 765 765 766 761 758 755 753 755 754 751 757 764 761 761 765 765 764 762 761 760 759 761 765
804 803 802 801 801 800 799 798 797 796 795 794 793 793 792 791 790 789 788 787 786 784 783 781 780 779 778 777 776 776 774 772 769 758 747 748 751 750 753 757 758 759 760 761 762 763 764 765 766 768 770 772 772 772 773 771 771 774 779 786 783 778 774 767 765 762 760 762 761 760 753 751 752 751 752 760 766 764 763 764 765 768 767 764 763 762 764 766
803 802 802 801 800 799 798 797 796 796 795 794 793 792 791 790 789 788 787 786 785 784 782 781 780 778 777 776 776 775 775 773 762 748 745 747 746 746 749 753 756 757 759 760 762 763 764 765 765 767 771 774 773 772 774 771 771 773 775 780 775 773 773 764 761 759 757 757 759 759 754 752 750 749 754 760 766 768 765 759 756 762 764 764 764 763 765 767
802 801 801 800 799 798 798 797 796 795 794 793 792 791 790 789 789 787 787 785 784 783 781 781 779 777 776 776 775 774 776 771 753 743 745 744 743 744 746 749 754 756 758 761 761 763 764 764 765 768 771 774 774 774 774 769 768 773 772 772 770 771 771 761 759 759 755 755 757 758 755 751 749 751 755 758 762 763 758 753 751 756 759 760 762 764 767 768
801 800 800 799 798 798 797 796 795 794 793 792 791 790 789 788 787 787 786 784 783 782 781 780 778 777 775 775 774 774 775 764 745 743 744 742 742 741 743 748 752 755 757 759 760 762 763 764 766 769 772 774 775 774 772 767 767 774 772 768 767 768 767 760 759 758 754 756 757 756 752 750 751 754 755 755 755 752 748 747 750 754 756 756 759 763 766 768
800 799 799 798 797 796 796 795 794 793 792 791 790 789 788 787 786 786 784 783 782 781 780 779 778 777 775 775 774 774 775 759 742 744 743 741 742 740 743 747 751 755 756 758 760 762 763 765 766 768 772 774 775 772 770 767 767 773 772 766 765 765 764 760 759 757 755 757 757 753 751 751 752 753 754 753 751 748 746 747 750 755 757 759 761 764 766 767
799 798 798 797 796 795 795 794 793 792 791 790 789 788 787 786 785 784 783 782 781 780 779 778 777 776 775 774 773 774 772 754 740 743 743 742 743 741 744 748 751 753 755 757 758 760 762 764 766 766 772 773 771 771 768 768 769 771 770 766 763 763 760 758 758 759 757 757 756 754 753 752 751 752 752 751 750 748 748 749 753 757 760 763 764 766 767 767
799 798 797 796 795 795 794 793 792 790 789 789 788 786 785 784 784 783 782 781 780 779 778 777 777 775 775 774 774 773 760 745 740 742 742 742 743 743 745 747 751 752 754 757 757 761 761 763 764 763 769 770 768 769 766 769 772 767 765 764 762 761 758 757 758 758 758 756 755 757 757 752 751 754 753 751 751 750 750 753 756 759 763 765 766 767 767 766
798 797 796 795 794 794 793 792 791 789 789 788 786 785 784 783 782 781 780 780 779 778 777 777 776 775 776 773 775 769 750 740 742 740 740 742 743 744 745 747 749 751 753 756 757 758 758 759 761 760 765 767 766 767 764 767 767 762 762 762 761 760 757 757 757 756 756 755 754 757 758 753 752 756 758 755 753 751 753 758 759 761 764 766 767 768 767 767
797 796 795 794 793 792 791 791 789 788 788 786 785 784 783 781 780 780 779 778 778 777 777 776 776 775 775 774 775 763 744 740 741 738 740 742 742 743 744 746 748 750 752 755 755 754 755 757 758 760 765 765 763 765 763 761 761 759 761 762 759 759 758 756 756 755 755 754 752 753 756 755 756 758 757 755 753 751 755 760 761 763 765 766 767 768 768 768
795 795 794 793 792 791 790 789 788 787 786 785 784 782 782 780 779 778 777 777 776 776 776 775 776 774 774 775 768 751 741 742 740 739 741 741 743 744 745 747 747 748 750 752 753 752 756 757 757 762 764 762 764 765 761 757 758 758 759 763 761 758 758 755 754 753 753 753 748 752 761 761 759 756 752 753 753 752 756 760 762 764 765 766 768 769 769 769
794 793 793 792 791 790 789 788 787 786 785 784 782 781 780 778 777 777 775 776 775 775 775 775 775 774 775 769 752 740 740 742 740 740 741 741 744 745 746 747 747 749 749 750 751 752 756 756 757 761 760 761 764 761 757 755 757 758 760 764 764 764 762 755 753 753 752 752 746 753 770 767 757 754 752 753 753 755 760 761 763 764 765 767 767 769 769 769
793 792 791 790 789 788 787 786 786 784 783 782 780 779 778 776 776 774 774 774 773 774 774 774 774 774 775 761 740 738 741 741 740 738 738 740 742 744 745 746 747 749 749 750 751 752 754 755 758 760 758 760 760 755 757 759 759 760 762 766 770 773 768 755 753 753 753 753 745 752 772 767 753 752 754 754 752 756 761 762 762 764 765 766 767 768 769 769
792 791 790 789 788 787 786 785 784 782 781 780 778 777 775 774 773 772 773 772 772 773 773 774 774 774 776 759 739 738 739 738 736 734 736 738 740 742 743 744 746 747 749 751 752 753 754 756 759 761 759 756 756 759 764 764 762 764 769 774 776 775 769 757 752 753 754 753 748 754 770 765 753 751 751 752 753 754 759 761 761 763 764 766 767 767 769 769
791 790 788 788 787 786 785 784 782 781 780 778 776 775 772 771 770 770 770 769 771 772 772 774 772 775 774 754 738 737 736 735 732 732 735 736 738 741 742 744 745 747 749 750 751 752 753 755 757 759 758 757 760 765 769 772 771 772 775 778 776 773 771 763 754 752 752 752 752 756 765 762 753 752 751 751 753 755 758 760 760 762 763 764 766 767 769 770
789 788 787 786 785 784 783 782 781 780 778 777 774 772 769 768 767 767 768 769 770 770 772 771 771 776 764 743 737 736 732 731 730 730 732 734 737 739 742 745 745 746 749 749 751 752 753 756 757 757 758 760 763 765 775 784 782 779 777 776 776 774 774 770 760 754 752 755 756 756 760 758 750 752 755 753 754 755 757 758 758 760 762 764 766 767 768 770
788 787 786 785 784 783 782 781 780 778 777 775 773 769 766 765 765 766 766 767 769 770 772 771 773 773 753 735 737 734 729 729 728 728 730 733 736 738 742 743 743 746 749 751 752 752 755 757 759 761 762 764 764 767 779 786 782 781 779 776 777 776 774 774 767 757 753 757 759 760 761 756 749 751 756 755 753 754 753 754 756 758 761 763 765 766 767 769
787 786 785 784 783 781 781 780 779 777 776 774 771 768 765 765 765 765 766 767 767 765 762 763 765 757 740 732 733 730 728 727 726 727 729 732 735 739 742 742 743 746 751 756 755 754 755 759 762 766 767 766 766 767 773 775 775 777 778 778 779 778 775 772 767 757 754 758 759 762 762 755 751 750 753 754 754 755 754 755 757 759 761 762 764 765 766 768
786 784 783 782 781 780 779 778 777 776 775 773 771 768 765 765 765 765 767 766 761 754 749 751 752 744 735 732 730 729 727 725 725 726 727 731 734 739 742 742 745 748 752 756 757 754 754 762 767 767 766 766 765 765 765 769 772 774 777 778 778 780 778 769 764 756 754 760 758 757 762 757 753 751 750 753 755 756 757 758 760 760 760 760 762 765 765 766
784 783 782 781 780 779 778 777 776 775 775 773 773 771 766 763 763 764 765 761 754 749 747 746 747 742 735 732 731 731 730 727 726 725 727 730 733 741 743 743 749 753 754 754 755 754 755 765 767 762 762 762 763 764 764 769 773 774 776 778 778 782 778 766 763 758 756 764 758 755 763 759 753 751 751 756 759 758 756 757 759 759 759 759 761 763 764 765
783 782 780 780 778 777 776 775 774 773 774 773 773 772 767 763 762 762 762 758 749 746 745 742 743 740 733 732 733 733 735 733 728 726 728 730 734 741 743 744 752 755 755 754 757 760 763 767 762 759 763 764 765 767 768 770 773 775 777 780 781 779 775 765 761 758 758 763 758 755 762 759 755 755 755 760 761 758 754 753 754 755 757 759 759 761 763 765
782 780 780 778 777 776 774 773 772 771 771 770 770 769 765 762 761 761 762 759 748 740 740 739 739 736 732 733 732 732 734 733 731 728 726 731 735 739 741 746 751 754 756 756 759 766 769 764 757 760 765 764 766 769 771 772 774 776 777 781 782 777 776 772 764 758 758 762 758 755 761 758 757 760 761 763 762 758 757 755 754 755 757 758 759 762 766 768
780 779 779 777 776 775 772 771 769 768 768 768 767 763 760 760 760 761 760 756 747 736 731 731 732 731 729 729 728 729 731 729 729 727 725 730 735 737 740 745 751 755 757 756 758 764 764 757 754 760 764 763 764 768 770 773 774 776 774 777 780 774 774 774 768 762 758 761 759 757 766 764 760 767 771 769 767 764 762 759 759 760 759 760 763 765 768 771
779 778 777 775 775 773 771 770 767 767 767 765 763 759 759 759 757 759 759 753 745 735 727 726 728 725 721 724 726 724 728 727 725 724 723 726 731 736 740 742 748 756 757 756 761 763 759 754 753 759 764 764 766 767 768 770 774 775 769 770 773 770 771 771 771 770 766 767 764 763 777 778 770 774 778 775 775 775 772 768 768 767 764 764 767 768 769 771
778 778 776 775 774 771 770 767 766 767 765 762 760 758 759 758 755 757 757 755 746 733 726 725 724 719 715 722 722 722 731 729 719 719 722 724 726 731 740 743 744 752 755 756 760 760 756 752 751 757 762 765 767 768 767 768 775 776 765 761 766 767 771 772 771 772 774 776 770 768 778 782 776 775 778 779 782 784 780 777 777 774 770 767 768 770 769 770
777 776 775 774 773 771 770 767 766 767 764 760 757 757 756 754 755 755 755 759 746 725 723 726 720 714 711 714 715 723 735 727 717 720 720 723 725 726 739 746 745 748 748 753 761 757 750 751 753 755 759 765 768 768 765 765 774 773 757 755 763 766 770 772 768 769 773 774 771 769 769 777 783 780 780 783 787 789 786 782 782 779 776 774 772 773 772 771
776 775 774 773 772 772 770 768 768 766 762 758 755 755 753 751 754 752 756 760 738 713 716 721 715 710 709 711 713 720 723 718 721 724 716 720 725 727 739 744 743 746 742 750 763 755 745 750 753 754 760 765 763 759 759 762 769 762 749 753 760 761 766 766 765 769 775 776 776 774 769 779 793 786 782 786 788 792 791 787 786 783 780 779 777 777 776 775
774 773 772 772 770 770 770 769 767 763 759 756 755 753 751 752 752 752 761 757 726 707 711 712 711 711 710 714 717 717 716 715 721 721 716 721 724 726 736 738 739 745 742 745 755 750 743 744 745 750 758 758 752 751 753 758 761 751 746 756 759 761 766 765 767 769 776 783 782 777 772 781 796 793 790 793 792 796 796 790 789 785 783 781 780 780 779 779
773 772 771 771 769 769 768 766 763 759 758 756 755 752 750 752 752 758 767 746 716 709 710 710 712 712 712 718 721 720 718 717 717 718 720 724 724 725 730 732 736 744 745 745 748 747 742 739 740 745 748 745 742 747 749 749 750 746 749 758 760 765 766 768 774 771 780 791 781 775 776 778 790 797 800 802 798 799 798 794 792 788 786 784 783 783 782 782
771 770 770 769 768 768 767 763 758 757 759 756 754 751 750 753 756 764 756 725 711 714 712 713 714 710 714 718 721 722 721 720 718 721 726 727 729 730 732 737 740 746 751 750 749 747 744 743 743 738 736 737 739 746 748 746 746 747 753 758 764 771 771 774 780 777 790 797 780 777 781 778 789 801 803 804 799 797 797 797 797 793 791 789 787 787 786 786
769 768 767 767 767 767 765 759 756 757 758 756 755 751 752 758 761 760 739 714 717 719 711 713 714 710 715 716 718 721 721 723 721 722 728 730 735 736 736 741 744 752 761 757 753 752 747 745 742 736 732 734 740 750 753 751 752 753 756 760 770 783 785 788 791 789 794 792 781 784 782 783 801 808 806 804 799 798 798 798 800 797 795 792 790 790 789 789
767 765 764 764 763 762 760 757 757 758 757 756 756 751 756 763 755 745 733 721 722 718 707 708 710 710 715 717 720 720 720 724 722 722 727 729 737 739 736 738 739 746 756 757 757 757 753 747 742 739 736 731 737 750 754 756 758 757 756 759 771 787 796 801 806 805 798 787 784 786 783 793 809 807 804 805 801 799 797 798 801 799 797 794 793 792 791 792
764 763 760 758 758 756 754 755 756 758 758 757 755 754 761 763 746 733 730 722 718 715 707 705 708 712 715 717 718 717 722 726 721 723 729 731 739 742 740 740 739 739 746 754 760 759 761 758 744 738 737 730 733 739 740 745 753 755 753 754 763 775 785 795 798 796 792 787 787 787 789 802 809 804 803 803 802 799 795 798 801 799 798 795 793 792 792 794
761 759 757 753 752 750 750 753 755 757 759 756 754 759 763 756 739 731 728 718 714 715 708 702 707 716 719 717 716 714 718 725 723 725 730 733 739 741 739 740 739 738 743 754 759 756 762 759 738 730 732 729 730 731 730 737 750 758 755 754 760 760 765 782 791 787 785 787 794 799 803 809 807 804 804 802 802 801 797 800 801 800 800 797 795 796 795 795
759 756 754 750 748 747 747 751 753 756 758 755 756 761 759 746 735 730 724 716 715 716 712 709 709 718 724 720 718 716 714 720 725 728 732 734 735 736 736 734 733 736 739 747 754 754 759 754 736 730 731 726 727 727 726 733 745 757 757 755 756 752 754 774 791 794 788 787 801 811 811 812 810 807 806 804 803 803 801 802 803 802 802 800 800 800 799 799
757 755 752 748 745 745 746 748 751 755 756 754 756 756 750 740 730 726 720 715 714 712 715 719 714 716 724 723 722 719 716 721 725 727 734 736 734 733 733 730 728 730 731 736 745 748 752 750 737 732 731 726 724 725 726 727 734 749 755 749 751 756 757 765 780 792 792 791 805 814 811 811 812 809 807 805 804 804 804 804 804 804 803 803 804 803 803 803
757 755 750 745 743 744 745 747 750 754 754 755 757 752 744 737 727 722 719 715 713 711 713 718 714 713 719 722 722 719 719 726 727 728 733 736 733 728 728 729 726 726 726 729 738 743 747 751 741 733 733 728 723 728 734 732 728 735 741 739 747 762 766 768 776 786 791 797 806 812 813 811 809 808 806 804 804 805 806 807 807 807 806 806 807 807 806 805
756 754 748 743 742 743 745 748 750 752 753 756 758 751 741 735 726 720 718 716 714 712 713 715 712 713 716 717 720 719 719 724 726 728 731 734 733 727 724 725 724 726 727 727 736 740 743 753 748 735 733 731 728 734 743 743 735 733 737 742 747 755 761 766 772 776 782 794 804 810 813 810 806 806 803 801 803 806 808 810 810 810 811 811 811 811 810 809
755 753 747 743 743 744 746 748 750 752 753 754 754 747 739 735 727 719 716 715 713 710 712 713 711 714 716 714 716 718 718 721 724 727 728 729 732 729 724 722 722 725 727 728 734 737 742 753 752 739 733 737 739 739 739 740 740 739 743 750 751 752 756 761 769 773 773 782 798 806 809 808 805 803 801 799 802 806 809 811 812 813 815 816 816 816 815 814
754 752 747 744 745 746 746 750 752 753 754 752 750 745 739 735 729 721 715 713 711 707 707 710 710 713 715 715 716 717 717 720 722 726 728 728 732 732 724 721 723 725 729 732 734 736 743 751 752 745 741 745 746 740 733 732 736 739 743 748 751 753 757 764 774 778 770 775 792 794 796 807 807 801 801 802 803 806 809 811 813 816 818 819 820 819 819 818
754 750 746 745 746 746 747 750 753 754 754 751 746 742 739 735 730 724 717 712 710 707 706 708 710 713 715 714 715 716 718 721 722 726 730 732 734 734 726 723 724 723 727 737 738 736 739 746 749 750 751 752 747 741 737 734 735 740 746 751 753 751 753 760 771 775 773 782 793 788 790 805 808 801 803 806 806 808 811 813 816 819 820 822 822 821 821 820
752 750 746 745 746 746 747 752 754 754 752 748 744 740 737 735 731 725 721 716 713 711 710 711 712 713 715 714 713 715 719 723 726 727 730 732 734 733 728 725 725 724 726 735 739 736 738 746 751 753 756 752 742 737 738 736 737 744 751 757 758 754 752 754 761 766 771 783 788 785 796 808 807 804 807 809 810 812 815 818 819 821 822 823 823 823 823 822
753 750 747 747 748 748 749 751 752 752 749 745 744 740 736 734 731 727 724 719 715 714 714 715 713 713 714 714 714 718 720 723 730 731 730 733 733 730 728 725 725 726 727 731 734 734 741 750 752 756 766 765 755 749 746 743 746 754 761 763 762 760 756 755 762 765 771 785 784 780 797 811 807 808 810 811 814 817 820 822 821 822 824 824 825 825 824 824
755 751 747 747 749 750 751 749 749 751 750 748 746 742 738 733 726 724 724 719 715 715 716 716 715 714 715 715 717 721 721 722 730 732 731 734 734 730 729 727 725 728 729 729 730 732 744 756 754 754 767 774 768 764 759 756 758 763 767 766 765 765 759 756 762 763 770 789 789 782 798 812 810 810 813 814 818 820 822 825 824 824 825 825 826 826 825 825
755 750 748 749 749 750 750 747 748 750 750 750 746 740 737 732 724 720 720 719 717 716 717 718 716 715 717 718 722 727 727 725 728 732 734 736 736 735 733 729 728 730 730 731 732 734 746 762 762 756 758 761 761 764 764 761 761 765 770 769 768 771 767 760 759 760 769 788 793 790 797 806 809 812 814 818 821 822 825 827 827 827 826 827 828 827 827 827
753 749 748 749 750 751 750 748 749 749 748 748 745 738 735 731 726 721 719 719 719 718 720 723 721 720 722 724 726 732 735 731 730 734 738 739 738 737 734 731 730 730 729 732 735 735 745 760 766 765 766 766 767 769 769 766 767 773 776 775 775 774 767 761 763 769 773 777 785 794 797 799 807 814 817 822 824 825 827 829 829 829 828 829 829 829 829 828
751 749 746 744 746 750 751 748 748 748 747 748 746 740 734 730 728 726 721 719 720 719 722 728 729 727 726 725 728 736 739 737 739 741 741 741 740 738 737 735 734 734 733 735 738 740 749 763 768 770 775 776 774 774 773 773 780 787 786 784 785 781 773 772 781 787 779 768 773 790 798 802 811 818 821 825 826 827 829 829 829 830 829 830 830 830 831 830
749 748 746 743 744 747 747 745 745 746 746 748 746 740 734 730 728 727 724 722 724 724 725 733 737 734 730 727 730 739 743 741 743 745 743 744 744 742 743 742 738 737 736 739 744 745 752 768 773 772 776 780 780 779 777 776 782 789 792 792 792 790 787 787 790 791 783 776 779 792 804 813 821 823 825 828 829 830 830 829 829 831 830 830 831 833 834 833
750 748 747 747 746 746 746 745 744 744 744 745 745 738 732 729 727 727 727 726 729 729 728 735 739 737 735 733 733 740 744 740 741 744 743 744 744 743 746 746 743 742 741 744 748 746 750 768 776 772 777 785 787 786 784 782 784 789 794 796 794 793 793 792 793 792 791 793 799 803 811 821 827 828 829 830 831 832 832 831 832 832 832 832 833 834 835 834
750 748 748 748 746 744 745 744 743 742 741 741 741 735 730 730 728 728 730 729 730 730 730 735 738 736 737 738 737 741 742 739 739 740 739 741 742 743 744 744 743 744 745 748 750 746 750 768 776 772 777 788 790 789 790 788 785 788 795 800 798 795 796 797 798 797 795 801 808 808 810 820 828 829 831 832 832 833 835 835 834 833 833 834 835 836 836 835
750 748 747 748 746 743 743 741 740 740 736 735 735 730 729 730 727 728 731 731 729 730 732 734 734 735 739 740 740 739 738 737 737 737 738 740 743 745 746 745 745 745 747 750 754 755 755 762 768 768 775 789 791 788 788 785 780 786 799 806 803 800 799 801 803 803 800 801 805 805 810 821 828 829 831 833 834 835 837 837 836 835 836 836 837 837 836 835